Time,TemperatureF,DewpointF,PressureIn,WindDirection,WindDirectionDegrees,WindSpeedMPH,WindSpeedGustMPH,Humidity,HourlyPrecipIn,Conditions,Clouds,dailyrainin,SoftwareType,DateUTC
2013-10-16 00:01:00,36.3,35.1,30.18,SSW,207,0.0,1.0,95,0.00,,,0.00,meteohub,2013-10-16 04:01:00,
2013-10-16 00:02:00,36.3,35.1,30.18,SSW,207,0.0,1.0,95,0.00,,,0.00,meteohub,2013-10-16 04:02:00,
2013-10-16 00:03:00,36.3,35.1,30.18,SSW,207,0.0,1.0,95,0.00,,,0.00,meteohub,2013-10-16 04:03:00,
2013-10-16 00:06:00,36.1,34.9,30.18,SSW,207,0.0,1.0,95,0.00,,,0.00,meteohub,2013-10-16 04:06:00,
2013-10-16 00:11:00,36.1,34.9,30.18,SSW,207,0.0,0.0,95,0.00,,,0.00,meteohub,2013-10-16 04:11:00,
2013-10-16 00:16:00,36.0,34.7,30.18,SSW,207,0.0,0.0,95,0.00,,,0.00,meteohub,2013-10-16 04:16:00,
2013-10-16 00:21:00,35.8,34.5,30.18,SSW,207,0.0,0.0,95,0.00,,,0.00,meteohub,2013-10-16 04:21:00,
2013-10-16 00:26:00,35.6,34.3,30.17,SSW,207,0.0,0.0,95,0.00,,,0.00,meteohub,2013-10-16 04:26:00,
2013-10-16 00:31:00,35.4,34.2,30.17,SSW,207,0.0,0.0,95,0.00,,,0.00,meteohub,2013-10-16 04:31:00,
2013-10-16 00:37:00,35.4,34.2,30.17,SSW,207,0.0,0.0,95,0.00,,,0.00,meteohub,2013-10-16 04:37:00,
2013-10-16 00:42:00,35.2,34.0,30.17,SSW,207,0.0,0.0,95,0.00,,,0.00,meteohub,2013-10-16 04:42:00,
2013-10-16 00:47:00,35.1,33.8,30.17,SSW,207,0.0,0.0,95,0.00,,,0.00,meteohub,2013-10-16 04:47:00,
2013-10-16 00:52:00,35.1,33.8,30.17,SSW,207,0.0,0.0,95,0.00,,,0.00,meteohub,2013-10-16 04:52:00,
2013-10-16 00:57:00,35.1,33.8,30.17,SSW,207,0.0,0.0,95,0.00,,,0.00,meteohub,2013-10-16 04:57:00,
2013-10-16 01:02:00,35.1,34.0,30.17,SSW,207,0.0,0.0,96,0.00,,,0.00,meteohub,2013-10-16 05:02:00,
2013-10-16 01:07:00,35.1,34.0,30.17,SSW,208,0.0,0.0,96,0.00,,,0.00,meteohub,2013-10-16 05:07:00,
2013-10-16 01:12:00,34.9,33.8,30.16,SSW,208,0.0,0.0,96,0.00,,,0.00,meteohub,2013-10-16 05:12:00,
2013-10-16 01:18:00,34.9,33.8,30.16,SSW,208,0.0,0.0,96,0.00,,,0.00,meteohub,2013-10-16 05:18:00,
2013-10-16 01:23:00,34.9,33.8,30.17,SSW,208,0.0,0.0,96,0.00,,,0.00,meteohub,2013-10-16 05:23:00,
2013-10-16 01:28:00,34.9,33.8,30.17,SSW,207,0.0,0.0,96,0.00,,,0.00,meteohub,2013-10-16 05:28:00,
2013-10-16 01:33:00,34.9,33.8,30.17,SSW,207,0.0,0.0,96,0.00,,,0.00,meteohub,2013-10-16 05:33:00,
2013-10-16 01:38:00,34.7,33.6,30.16,SSW,207,0.0,0.0,96,0.00,,,0.00,meteohub,2013-10-16 05:38:00,
2013-10-16 01:43:00,34.7,33.6,30.17,SSW,208,0.0,0.0,96,0.00,,,0.00,meteohub,2013-10-16 05:43:00,
2013-10-16 01:48:00,34.7,33.6,30.16,SSW,208,0.0,0.0,96,0.00,,,0.00,meteohub,2013-10-16 05:48:00,
2013-10-16 01:53:00,34.7,33.6,30.16,SSW,208,0.0,1.0,96,0.00,,,0.00,meteohub,2013-10-16 05:53:00,
2013-10-16 01:59:00,34.5,33.4,30.16,SSW,208,0.0,1.0,96,0.00,,,0.00,meteohub,2013-10-16 05:59:00,
2013-10-16 02:04:00,34.5,33.4,30.16,SSW,208,0.0,0.0,96,0.00,,,0.00,meteohub,2013-10-16 06:04:00,
2013-10-16 02:09:00,34.3,33.3,30.16,SSW,208,0.0,0.0,96,0.00,,,0.00,meteohub,2013-10-16 06:09:00,
2013-10-16 02:14:00,34.3,33.3,30.16,SSW,208,0.0,1.0,96,0.00,,,0.00,meteohub,2013-10-16 06:14:00,
2013-10-16 02:19:00,34.3,33.3,30.16,SSW,208,0.0,1.0,96,0.00,,,0.00,meteohub,2013-10-16 06:19:00,
2013-10-16 02:24:00,34.2,33.1,30.16,SSW,208,0.0,1.0,96,0.00,,,0.00,meteohub,2013-10-16 06:24:00,
2013-10-16 02:29:00,34.2,33.1,30.16,SSW,208,0.0,0.0,96,0.00,,,0.00,meteohub,2013-10-16 06:29:00,
2013-10-16 02:34:00,34.2,33.4,30.16,SSW,208,0.0,0.0,97,0.00,,,0.00,meteohub,2013-10-16 06:34:00,
2013-10-16 02:40:00,34.3,33.6,30.16,SSW,208,0.0,0.0,97,0.00,,,0.00,meteohub,2013-10-16 06:40:00,
2013-10-16 02:45:00,34.3,33.6,30.16,SSW,208,0.0,0.0,97,0.00,,,0.00,meteohub,2013-10-16 06:45:00,
2013-10-16 02:50:00,34.3,33.6,30.15,SSW,208,0.0,0.0,97,0.00,,,0.00,meteohub,2013-10-16 06:50:00,
2013-10-16 02:55:00,34.5,33.8,30.15,SSW,208,0.0,0.0,97,0.00,,,0.00,meteohub,2013-10-16 06:55:00,
2013-10-16 03:00:00,34.5,33.8,30.15,SSW,208,0.0,0.0,97,0.00,,,0.00,meteohub,2013-10-16 07:00:00,
2013-10-16 03:05:00,34.5,33.8,30.16,SSW,208,0.0,0.0,97,0.00,,,0.00,meteohub,2013-10-16 07:05:00,
2013-10-16 03:10:00,34.7,34.0,30.16,SSW,208,0.0,0.0,97,0.00,,,0.00,meteohub,2013-10-16 07:10:00,
2013-10-16 03:15:00,34.9,34.2,30.16,SSW,208,0.0,0.0,97,0.00,,,0.00,meteohub,2013-10-16 07:15:00,
2013-10-16 03:21:00,35.1,34.3,30.16,SSW,209,2.0,0.0,97,0.00,,,0.00,meteohub,2013-10-16 07:21:00,
2013-10-16 03:26:00,35.4,34.7,30.16,SSW,209,0.0,3.0,97,0.00,,,0.00,meteohub,2013-10-16 07:26:00,
2013-10-16 03:31:00,35.4,34.7,30.15,SSW,209,0.0,3.0,97,0.00,,,0.00,meteohub,2013-10-16 07:31:00,
2013-10-16 03:36:00,35.8,35.1,30.15,SSW,209,0.0,3.0,97,0.00,,,0.00,meteohub,2013-10-16 07:36:00,
2013-10-16 03:41:00,35.8,35.1,30.15,SSW,209,0.0,1.0,97,0.00,,,0.00,meteohub,2013-10-16 07:41:00,
2013-10-16 03:46:00,36.0,35.2,30.14,SSW,209,0.0,1.0,97,0.00,,,0.00,meteohub,2013-10-16 07:46:00,
2013-10-16 03:51:00,36.0,35.2,30.14,SSW,208,0.0,1.0,97,0.00,,,0.00,meteohub,2013-10-16 07:51:00,
2013-10-16 03:56:00,36.0,35.2,30.14,SSW,208,0.0,1.0,97,0.00,,,0.00,meteohub,2013-10-16 07:56:00,
2013-10-16 04:01:00,36.0,35.2,30.14,SSW,209,0.0,1.0,97,0.00,,,0.00,meteohub,2013-10-16 08:01:00,
2013-10-16 04:07:00,36.0,35.2,30.14,SSW,209,0.0,0.0,97,0.00,,,0.00,meteohub,2013-10-16 08:07:00,
2013-10-16 04:12:00,36.0,35.2,30.14,SSW,208,0.0,0.0,97,0.00,,,0.00,meteohub,2013-10-16 08:12:00,
2013-10-16 04:17:00,36.1,35.4,30.14,SSW,209,0.0,0.0,97,0.00,,,0.00,meteohub,2013-10-16 08:17:00,
2013-10-16 04:22:00,36.1,35.4,30.14,SSW,208,0.0,0.0,97,0.00,,,0.00,meteohub,2013-10-16 08:22:00,
2013-10-16 04:27:00,36.3,35.6,30.14,SSW,209,0.0,0.0,97,0.00,,,0.00,meteohub,2013-10-16 08:27:00,
2013-10-16 04:32:00,36.3,35.6,30.13,SSW,208,0.0,0.0,97,0.00,,,0.00,meteohub,2013-10-16 08:32:00,
2013-10-16 04:37:00,36.7,36.0,30.14,SSW,209,0.0,2.0,97,0.00,,,0.00,meteohub,2013-10-16 08:37:00,
2013-10-16 04:42:00,36.9,36.1,30.14,SSW,209,0.0,2.0,97,0.00,,,0.00,meteohub,2013-10-16 08:42:00,
2013-10-16 04:47:00,36.9,36.1,30.14,SSW,208,0.0,2.0,97,0.00,,,0.00,meteohub,2013-10-16 08:47:00,
2013-10-16 04:52:00,37.0,36.3,30.14,SSW,209,0.0,0.0,97,0.00,,,0.00,meteohub,2013-10-16 08:52:00,
2013-10-16 04:57:00,37.0,36.3,30.14,SSW,208,0.0,0.0,97,0.00,,,0.00,meteohub,2013-10-16 08:57:00,
2013-10-16 05:02:00,37.2,36.5,30.14,SSW,208,0.0,0.0,97,0.00,,,0.00,meteohub,2013-10-16 09:02:00,
2013-10-16 05:07:00,37.6,36.9,30.14,SSW,209,0.0,0.0,97,0.00,,,0.00,meteohub,2013-10-16 09:07:00,
2013-10-16 05:12:00,37.6,36.9,30.14,SSW,208,0.0,0.0,97,0.00,,,0.00,meteohub,2013-10-16 09:12:00,
2013-10-16 05:17:00,37.8,37.0,30.14,SSW,209,0.0,0.0,97,0.00,,,0.00,meteohub,2013-10-16 09:17:00,
2013-10-16 05:22:00,37.8,37.0,30.14,SSW,209,0.0,0.0,97,0.00,,,0.00,meteohub,2013-10-16 09:22:00,
2013-10-16 05:27:00,37.9,37.2,30.14,SSW,208,0.0,0.0,97,0.00,,,0.00,meteohub,2013-10-16 09:27:00,
2013-10-16 05:32:00,38.1,37.4,30.14,SSW,209,0.0,0.0,97,0.00,,,0.00,meteohub,2013-10-16 09:32:00,
2013-10-16 05:37:00,38.1,37.4,30.14,SSW,209,0.0,0.0,97,0.00,,,0.00,meteohub,2013-10-16 09:37:00,
2013-10-16 05:42:00,38.3,37.6,30.14,SSW,209,0.0,0.0,97,0.00,,,0.00,meteohub,2013-10-16 09:42:00,
2013-10-16 05:47:00,38.5,37.8,30.14,SSW,209,0.0,0.0,97,0.00,,,0.00,meteohub,2013-10-16 09:47:00,
2013-10-16 05:52:00,38.5,37.8,30.14,SSW,209,0.0,0.0,97,0.00,,,0.00,meteohub,2013-10-16 09:52:00,
2013-10-16 05:57:00,38.7,37.9,30.14,SSW,209,0.0,0.0,97,0.00,,,0.00,meteohub,2013-10-16 09:57:00,
2013-10-16 06:02:00,38.8,38.1,30.14,SSW,209,0.0,0.0,97,0.00,,,0.00,meteohub,2013-10-16 10:02:00,
2013-10-16 06:07:00,38.8,38.1,30.14,SSW,209,0.0,0.0,97,0.00,,,0.00,meteohub,2013-10-16 10:07:00,
2013-10-16 06:12:00,39.0,38.3,30.14,SSW,209,0.0,0.0,97,0.00,,,0.00,meteohub,2013-10-16 10:12:00,
2013-10-16 06:17:00,39.2,38.5,30.14,SSW,208,0.0,0.0,97,0.00,,,0.00,meteohub,2013-10-16 10:17:00,
2013-10-16 06:22:00,39.4,38.7,30.14,SSW,209,0.0,0.0,97,0.00,,,0.00,meteohub,2013-10-16 10:22:00,
2013-10-16 06:27:00,39.6,38.8,30.14,SSW,209,0.0,0.0,97,0.00,,,0.00,meteohub,2013-10-16 10:27:00,
2013-10-16 06:32:00,39.7,39.0,30.13,SSW,209,0.0,0.0,97,0.00,,,0.00,meteohub,2013-10-16 10:32:00,
2013-10-16 06:37:00,39.7,39.0,30.13,SSW,209,0.0,0.0,97,0.00,,,0.00,meteohub,2013-10-16 10:37:00,
2013-10-16 06:42:00,39.9,38.8,30.13,SSW,209,0.0,0.0,96,0.00,,,0.00,meteohub,2013-10-16 10:42:00,
2013-10-16 06:47:00,39.9,39.2,30.13,SSW,209,0.0,0.0,97,0.00,,,0.00,meteohub,2013-10-16 10:47:00,
2013-10-16 06:52:00,40.1,39.0,30.12,SSW,209,0.0,0.0,96,0.00,,,0.00,meteohub,2013-10-16 10:52:00,
2013-10-16 06:57:00,40.3,39.2,30.12,SSW,209,1.0,1.0,96,0.00,,,0.00,meteohub,2013-10-16 10:57:00,
2013-10-16 07:02:00,40.5,39.7,30.12,SSW,209,1.0,1.0,97,0.00,,,0.00,meteohub,2013-10-16 11:02:00,
2013-10-16 07:07:00,40.6,39.6,30.12,SSW,205,0.0,3.0,96,0.00,,,0.00,meteohub,2013-10-16 11:07:00,
2013-10-16 07:12:00,40.8,39.7,30.12,SSW,205,0.0,3.0,96,0.00,,,0.00,meteohub,2013-10-16 11:12:00,
2013-10-16 07:17:00,41.2,40.1,30.12,SSW,205,0.0,3.0,96,0.00,,,0.00,meteohub,2013-10-16 11:17:00,
2013-10-16 07:22:00,41.5,40.5,30.12,SSW,205,0.0,2.0,96,0.00,,,0.00,meteohub,2013-10-16 11:22:00,
2013-10-16 07:27:00,41.5,40.3,30.13,SSW,205,0.0,2.0,95,0.00,,,0.00,meteohub,2013-10-16 11:27:00,
2013-10-16 07:32:00,41.5,40.3,30.12,SSW,205,0.0,2.0,95,0.00,,,0.00,meteohub,2013-10-16 11:32:00,
2013-10-16 07:37:00,41.5,40.3,30.12,SSW,205,0.0,0.0,95,0.00,,,0.00,meteohub,2013-10-16 11:37:00,
2013-10-16 07:42:00,41.7,40.5,30.12,SSW,205,0.0,0.0,95,0.00,,,0.00,meteohub,2013-10-16 11:42:00,
2013-10-16 07:47:00,41.7,40.5,30.12,SSW,205,0.0,1.0,95,0.00,,,0.00,meteohub,2013-10-16 11:47:00,
2013-10-16 07:52:00,42.1,40.8,30.12,SSW,205,1.0,1.0,95,0.00,,,0.00,meteohub,2013-10-16 11:52:00,
2013-10-16 07:57:00,42.4,41.2,30.12,SSW,205,0.0,2.0,95,0.00,,,0.00,meteohub,2013-10-16 11:57:00,
2013-10-16 08:02:00,42.6,41.4,30.12,SSW,205,0.0,2.0,95,0.00,,,0.00,meteohub,2013-10-16 12:02:00,
2013-10-16 08:07:00,43.0,41.7,30.11,SSW,205,0.0,2.0,95,0.00,,,0.00,meteohub,2013-10-16 12:07:00,
2013-10-16 08:12:00,43.2,41.9,30.11,SSW,205,0.0,1.0,95,0.00,,,0.00,meteohub,2013-10-16 12:12:00,
2013-10-16 08:17:00,43.2,41.9,30.12,SSW,205,0.0,1.0,95,0.00,,,0.00,meteohub,2013-10-16 12:17:00,
2013-10-16 08:23:00,43.3,42.1,30.12,SSW,205,0.0,1.0,95,0.00,,,0.00,meteohub,2013-10-16 12:23:00,
2013-10-16 08:28:00,43.5,41.9,30.11,SSW,205,0.0,1.0,94,0.00,,,0.00,meteohub,2013-10-16 12:28:00,
2013-10-16 08:33:00,43.9,42.3,30.11,SSW,205,0.0,1.0,94,0.00,,,0.00,meteohub,2013-10-16 12:33:00,
2013-10-16 08:38:00,44.1,42.4,30.10,SW,226,4.0,0.0,94,0.00,,,0.00,meteohub,2013-10-16 12:38:00,
2013-10-16 08:43:00,44.2,42.3,30.10,SW,218,3.0,4.0,93,0.00,,,0.00,meteohub,2013-10-16 12:43:00,
2013-10-16 08:48:00,44.8,42.8,30.10,SW,215,1.0,5.0,93,0.00,,,0.00,meteohub,2013-10-16 12:48:00,
2013-10-16 08:53:00,45.1,43.2,30.10,SSW,202,0.0,5.0,93,0.00,,,0.00,meteohub,2013-10-16 12:53:00,
2013-10-16 08:59:00,45.5,43.5,30.09,South,190,1.0,5.0,93,0.00,,,0.00,meteohub,2013-10-16 12:59:00,
2013-10-16 09:04:00,45.7,43.7,30.09,SSW,212,3.0,5.0,93,0.00,,,0.00,meteohub,2013-10-16 13:04:00,
2013-10-16 09:09:00,45.9,43.7,30.09,SW,226,6.0,8.0,92,0.00,,,0.00,meteohub,2013-10-16 13:09:00,
2013-10-16 09:14:00,46.2,44.2,30.09,SW,216,3.0,9.0,93,0.00,,,0.00,meteohub,2013-10-16 13:14:00,
2013-10-16 09:19:00,46.6,44.6,30.09,South,186,2.0,9.0,93,0.00,,,0.00,meteohub,2013-10-16 13:19:00,
2013-10-16 09:24:00,46.8,44.8,30.08,South,176,2.0,9.0,93,0.00,,,0.00,meteohub,2013-10-16 13:24:00,
2013-10-16 09:30:00,47.5,45.9,30.08,SE,136,2.0,8.0,94,0.00,,,0.00,meteohub,2013-10-16 13:30:00,
2013-10-16 09:35:00,48.0,46.0,30.08,ESE,123,4.0,6.0,93,0.00,,,0.00,meteohub,2013-10-16 13:35:00,
2013-10-16 09:40:00,48.7,46.8,30.08,ESE,120,4.0,7.0,93,0.00,,,0.00,meteohub,2013-10-16 13:40:00,
2013-10-16 09:45:00,49.3,47.1,30.08,SE,131,8.0,8.0,92,0.00,,,0.00,meteohub,2013-10-16 13:45:00,
2013-10-16 09:50:00,49.6,47.5,30.08,South,175,1.0,13.0,92,0.00,,,0.00,meteohub,2013-10-16 13:50:00,
2013-10-16 09:55:00,49.8,47.3,30.08,SE,128,4.0,13.0,91,0.00,,,0.00,meteohub,2013-10-16 13:55:00,
2013-10-16 10:00:00,50.2,47.7,30.08,ESE,116,5.0,13.0,91,0.00,,,0.00,meteohub,2013-10-16 14:00:00,
2013-10-16 10:06:00,50.2,47.7,30.08,SSE,150,0.0,11.0,91,0.00,,,0.00,meteohub,2013-10-16 14:06:00,
2013-10-16 10:11:00,50.4,47.8,30.08,ESE,121,2.0,11.0,91,0.00,,,0.00,meteohub,2013-10-16 14:11:00,
2013-10-16 10:16:00,50.5,47.7,30.08,SE,133,3.0,11.0,90,0.00,,,0.00,meteohub,2013-10-16 14:16:00,
2013-10-16 10:21:00,50.5,47.7,30.08,ESE,116,5.0,8.0,90,0.00,,,0.00,meteohub,2013-10-16 14:21:00,
2013-10-16 10:26:00,50.5,48.0,30.08,SE,128,2.0,8.0,91,0.00,,,0.00,meteohub,2013-10-16 14:26:00,
2013-10-16 10:31:00,50.7,47.8,30.06,SE,141,1.0,8.0,90,0.00,,,0.00,meteohub,2013-10-16 14:31:00,
2013-10-16 10:36:00,50.9,48.0,30.06,ESE,111,2.0,8.0,90,0.00,,,0.00,meteohub,2013-10-16 14:36:00,
2013-10-16 10:41:00,51.3,48.4,30.06,SSE,161,3.0,7.0,90,0.00,,,0.00,meteohub,2013-10-16 14:41:00,
2013-10-16 10:47:00,51.4,48.6,30.06,ESE,120,5.0,8.0,90,0.00,,,0.00,meteohub,2013-10-16 14:47:00,
2013-10-16 10:52:00,51.6,48.7,30.06,SE,128,6.0,9.0,90,0.00,,,0.00,meteohub,2013-10-16 14:52:00,
2013-10-16 10:57:00,52.0,48.9,30.06,SE,127,0.0,9.0,89,0.00,,,0.00,meteohub,2013-10-16 14:57:00,
2013-10-16 11:02:00,52.3,48.9,30.06,SSE,162,2.0,9.0,88,0.00,,,0.00,meteohub,2013-10-16 15:02:00,
2013-10-16 11:07:00,53.1,49.6,30.05,ESE,111,5.0,9.0,88,0.00,,,0.00,meteohub,2013-10-16 15:07:00,
2013-10-16 11:12:00,53.4,49.6,30.05,SE,130,3.0,8.0,87,0.00,,,0.00,meteohub,2013-10-16 15:12:00,
2013-10-16 11:17:00,53.4,49.6,30.05,East,84,5.0,8.0,87,0.00,,,0.00,meteohub,2013-10-16 15:17:00,
2013-10-16 11:22:00,53.2,49.5,30.05,ESE,102,5.0,9.0,87,0.00,,,0.00,meteohub,2013-10-16 15:22:00,
2013-10-16 11:27:00,53.1,49.3,30.05,ESE,108,0.0,9.0,87,0.00,,,0.00,meteohub,2013-10-16 15:27:00,
2013-10-16 11:32:00,53.2,49.5,30.05,SE,130,4.0,10.0,87,0.00,,,0.00,meteohub,2013-10-16 15:32:00,
2013-10-16 11:37:00,53.2,49.5,30.05,SE,134,7.0,10.0,87,0.00,,,0.00,meteohub,2013-10-16 15:37:00,
2013-10-16 11:42:00,53.2,49.5,30.05,SE,144,6.0,10.0,87,0.00,,,0.00,meteohub,2013-10-16 15:42:00,
2013-10-16 11:47:00,53.6,50.2,30.05,SE,126,4.0,10.0,88,0.00,,,0.00,meteohub,2013-10-16 15:47:00,
2013-10-16 11:52:00,54.0,50.2,30.04,ESE,119,4.0,10.0,87,0.00,,,0.00,meteohub,2013-10-16 15:52:00,
2013-10-16 11:57:00,54.3,50.2,30.04,SE,136,4.0,11.0,86,0.00,,,0.00,meteohub,2013-10-16 15:57:00,
2013-10-16 12:02:00,54.9,50.7,30.04,SE,129,0.0,11.0,86,0.00,,,0.00,meteohub,2013-10-16 16:02:00,
2013-10-16 12:08:00,55.4,50.9,30.03,ESE,111,7.0,9.0,85,0.00,,,0.00,meteohub,2013-10-16 16:08:00,
2013-10-16 12:13:00,55.9,50.9,30.02,East,84,5.0,10.0,83,0.00,,,0.00,meteohub,2013-10-16 16:13:00,
2013-10-16 12:18:00,56.5,51.4,30.02,SE,130,5.0,10.0,83,0.00,,,0.00,meteohub,2013-10-16 16:18:00,
2013-10-16 12:23:00,56.7,51.3,30.02,SE,142,4.0,11.0,82,0.00,,,0.00,meteohub,2013-10-16 16:23:00,
2013-10-16 12:28:00,56.5,51.1,30.01,ESE,119,3.0,11.0,82,0.00,,,0.00,meteohub,2013-10-16 16:28:00,
2013-10-16 12:33:00,56.5,51.4,30.02,SE,128,6.0,15.0,83,0.00,,,0.00,meteohub,2013-10-16 16:33:00,
2013-10-16 12:38:00,56.7,51.3,30.02,SE,132,5.0,15.0,82,0.00,,,0.00,meteohub,2013-10-16 16:38:00,
2013-10-16 12:44:00,56.7,51.3,30.01,SE,136,3.0,15.0,82,0.00,,,0.00,meteohub,2013-10-16 16:44:00,
2013-10-16 12:49:00,56.5,51.1,30.01,SE,137,11.0,13.0,82,0.00,,,0.00,meteohub,2013-10-16 16:49:00,
2013-10-16 12:54:00,56.1,50.7,30.01,SE,141,5.0,15.0,82,0.00,,,0.00,meteohub,2013-10-16 16:54:00,
2013-10-16 12:59:00,55.8,50.7,30.01,SE,130,5.0,15.0,83,0.00,,,0.00,meteohub,2013-10-16 16:59:00,
2013-10-16 13:04:00,55.6,50.5,30.00,ESE,116,10.0,15.0,83,0.00,,,0.00,meteohub,2013-10-16 17:04:00,
2013-10-16 13:09:00,55.2,50.5,30.00,SE,132,7.0,12.0,84,0.00,,,0.00,meteohub,2013-10-16 17:09:00,
2013-10-16 13:14:00,55.0,50.4,30.00,NE,46,4.0,15.0,84,0.00,,,0.00,meteohub,2013-10-16 17:14:00,
2013-10-16 13:19:00,55.0,50.5,30.01,SE,134,7.0,15.0,85,0.00,,,0.00,meteohub,2013-10-16 17:19:00,
2013-10-16 13:25:00,54.9,50.4,30.00,SE,136,6.0,15.0,85,0.00,,,0.00,meteohub,2013-10-16 17:25:00,
2013-10-16 13:30:00,54.7,50.2,30.00,SE,143,6.0,14.0,85,0.00,,,0.00,meteohub,2013-10-16 17:30:00,
2013-10-16 13:35:00,54.5,50.4,30.00,ENE,76,3.0,14.0,86,0.00,,,0.00,meteohub,2013-10-16 17:35:00,
2013-10-16 13:40:00,54.3,50.2,30.00,SE,133,4.0,13.0,86,0.00,,,0.00,meteohub,2013-10-16 17:40:00,
2013-10-16 13:45:00,54.3,50.2,29.99,SE,132,7.0,12.0,86,0.00,,,0.00,meteohub,2013-10-16 17:45:00,
2013-10-16 13:50:00,54.3,50.2,30.00,SE,132,4.0,12.0,86,0.00,,,0.00,meteohub,2013-10-16 17:50:00,
2013-10-16 13:55:00,54.3,50.2,29.99,ESE,112,3.0,12.0,86,0.00,,,0.00,meteohub,2013-10-16 17:55:00,
2013-10-16 14:00:00,54.3,50.5,29.99,ESE,122,4.0,12.0,87,0.00,,,0.00,meteohub,2013-10-16 18:00:00,
2013-10-16 14:05:00,54.5,50.4,29.98,SE,134,6.0,10.0,86,0.00,,,0.00,meteohub,2013-10-16 18:05:00,
2013-10-16 14:11:00,54.7,50.5,29.98,SSE,157,3.0,10.0,86,0.00,,,0.00,meteohub,2013-10-16 18:11:00,
2013-10-16 14:16:00,54.9,50.7,29.98,SE,127,5.0,10.0,86,0.00,,,0.00,meteohub,2013-10-16 18:16:00,
2013-10-16 14:21:00,54.9,50.7,29.98,SE,128,9.0,12.0,86,0.00,,,0.00,meteohub,2013-10-16 18:21:00,
2013-10-16 14:26:00,54.9,50.7,29.98,SE,144,11.0,13.0,86,0.00,,,0.00,meteohub,2013-10-16 18:26:00,
2013-10-16 14:30:00,54.7,50.9,29.98,ESE,111,7.0,13.0,87,0.00,,,0.00,meteohub,2013-10-16 18:30:00,
2013-10-16 14:35:00,54.7,50.9,29.98,ESE,115,7.0,14.0,87,0.00,,,0.00,meteohub,2013-10-16 18:35:00,
2013-10-16 14:40:00,54.7,50.9,29.98,SE,141,10.0,14.0,87,0.00,,,0.00,meteohub,2013-10-16 18:40:00,
2013-10-16 14:45:00,54.7,50.9,29.97,ESE,123,5.0,13.0,87,0.00,,,0.00,meteohub,2013-10-16 18:45:00,
2013-10-16 14:50:00,54.7,50.9,29.97,ESE,123,4.0,13.0,87,0.00,,,0.00,meteohub,2013-10-16 18:50:00,
2013-10-16 14:55:00,54.5,50.7,29.97,SE,132,6.0,13.0,87,0.00,,,0.00,meteohub,2013-10-16 18:55:00,
2013-10-16 15:00:00,54.5,50.7,29.96,SE,134,4.0,13.0,87,0.00,,,0.00,meteohub,2013-10-16 19:00:00,
2013-10-16 15:05:00,54.7,50.9,29.96,SE,143,3.0,11.0,87,0.00,,,0.00,meteohub,2013-10-16 19:05:00,
2013-10-16 15:11:00,54.7,51.3,29.96,ESE,106,4.0,10.0,88,0.00,,,0.00,meteohub,2013-10-16 19:11:00,
2013-10-16 15:16:00,54.9,51.1,29.96,SE,128,4.0,10.0,87,0.00,,,0.00,meteohub,2013-10-16 19:16:00,
2013-10-16 15:21:00,54.9,51.1,29.96,SE,137,3.0,9.0,87,0.00,,,0.00,meteohub,2013-10-16 19:21:00,
2013-10-16 15:26:00,54.9,51.4,29.96,ESE,106,3.0,9.0,88,0.00,,,0.00,meteohub,2013-10-16 19:26:00,
2013-10-16 15:31:00,55.0,51.6,29.96,SE,132,5.0,9.0,88,0.00,,,0.00,meteohub,2013-10-16 19:31:00,
2013-10-16 15:36:00,55.0,51.6,29.96,SE,125,6.0,10.0,88,0.00,,,0.00,meteohub,2013-10-16 19:36:00,
2013-10-16 15:41:00,55.0,51.6,29.96,East,91,9.0,10.0,88,0.00,,,0.00,meteohub,2013-10-16 19:41:00,
2013-10-16 15:47:00,55.0,51.3,29.95,SE,130,3.0,12.0,87,0.00,,,0.00,meteohub,2013-10-16 19:47:00,
2013-10-16 15:52:00,55.0,51.3,29.95,ESE,123,2.0,12.0,87,0.00,,,0.00,meteohub,2013-10-16 19:52:00,
2013-10-16 15:57:00,55.2,51.4,29.95,ESE,122,9.0,12.0,87,0.00,,,0.00,meteohub,2013-10-16 19:57:00,
2013-10-16 16:02:00,55.2,51.4,29.95,SSE,157,3.0,12.0,87,0.00,,,0.00,meteohub,2013-10-16 20:02:00,
2013-10-16 16:07:00,55.4,51.6,29.95,ESE,111,4.0,12.0,87,0.00,,,0.00,meteohub,2013-10-16 20:07:00,
2013-10-16 16:12:00,55.4,51.3,29.94,SE,132,6.0,12.0,86,0.00,,,0.00,meteohub,2013-10-16 20:12:00,
2013-10-16 16:17:00,55.6,51.4,29.94,ESE,122,9.0,15.0,86,0.00,,,0.00,meteohub,2013-10-16 20:17:00,
2013-10-16 16:22:00,55.6,51.4,29.93,ESE,116,5.0,15.0,86,0.00,,,0.00,meteohub,2013-10-16 20:22:00,
2013-10-16 16:28:00,55.8,51.6,29.93,ESE,107,4.0,15.0,86,0.00,,,0.00,meteohub,2013-10-16 20:28:00,
2013-10-16 16:33:00,55.8,51.3,29.93,SE,136,6.0,15.0,85,0.00,,,0.00,meteohub,2013-10-16 20:33:00,
2013-10-16 16:38:00,55.8,51.3,29.93,South,188,1.0,14.0,85,0.00,,,0.00,meteohub,2013-10-16 20:38:00,
2013-10-16 16:43:00,55.8,51.1,29.93,SSE,157,3.0,14.0,84,0.00,,,0.00,meteohub,2013-10-16 20:43:00,
2013-10-16 16:48:00,55.9,50.9,29.93,ESE,121,5.0,10.0,83,0.00,,,0.00,meteohub,2013-10-16 20:48:00,
2013-10-16 16:53:00,55.9,50.2,29.94,SE,140,2.0,9.0,81,0.00,,,0.00,meteohub,2013-10-16 20:53:00,
2013-10-16 16:58:00,56.1,49.6,29.94,ESE,122,3.0,9.0,79,0.00,,,0.00,meteohub,2013-10-16 20:58:00,
2013-10-16 17:03:00,56.1,49.3,29.94,SE,138,1.0,9.0,78,0.00,,,0.00,meteohub,2013-10-16 21:03:00,
2013-10-16 17:09:00,56.1,48.9,29.95,SE,142,2.0,9.0,77,0.00,,,0.00,meteohub,2013-10-16 21:09:00,
2013-10-16 17:14:00,56.1,48.7,29.94,SSE,148,2.0,8.0,76,0.00,,,0.00,meteohub,2013-10-16 21:14:00,
2013-10-16 17:19:00,55.9,48.6,29.95,SE,138,2.0,11.0,76,0.00,,,0.00,meteohub,2013-10-16 21:19:00,
2013-10-16 17:24:00,55.9,48.6,29.94,SSE,155,2.0,11.0,76,0.00,,,0.00,meteohub,2013-10-16 21:24:00,
2013-10-16 17:29:00,55.8,48.4,29.94,ESE,121,7.0,11.0,76,0.00,,,0.00,meteohub,2013-10-16 21:29:00,
2013-10-16 17:34:00,55.8,48.4,29.94,SE,136,1.0,10.0,76,0.00,,,0.00,meteohub,2013-10-16 21:34:00,
2013-10-16 17:39:00,55.6,48.6,29.94,SE,126,0.0,10.0,77,0.00,,,0.00,meteohub,2013-10-16 21:39:00,
2013-10-16 17:44:00,55.6,48.6,29.94,SE,126,4.0,10.0,77,0.00,,,0.00,meteohub,2013-10-16 21:44:00,
2013-10-16 17:50:00,55.6,48.2,29.94,South,182,2.0,10.0,76,0.00,,,0.00,meteohub,2013-10-16 21:50:00,
2013-10-16 17:55:00,55.6,48.6,29.94,SE,140,1.0,7.0,77,0.00,,,0.00,meteohub,2013-10-16 21:55:00,
2013-10-16 18:00:00,55.4,48.4,29.94,SE,128,0.0,7.0,77,0.00,,,0.00,meteohub,2013-10-16 22:00:00,
2013-10-16 18:05:00,55.2,48.2,29.94,SE,126,1.0,6.0,77,0.00,,,0.00,meteohub,2013-10-16 22:05:00,
2013-10-16 18:10:00,55.2,48.2,29.93,SE,124,0.0,7.0,77,0.00,,,0.00,meteohub,2013-10-16 22:10:00,
2013-10-16 18:15:00,55.2,48.2,29.93,SE,124,1.0,7.0,77,0.00,,,0.00,meteohub,2013-10-16 22:15:00,
2013-10-16 18:20:00,55.0,48.4,29.93,ESE,123,2.0,7.0,78,0.00,,,0.00,meteohub,2013-10-16 22:20:00,
2013-10-16 18:25:00,55.0,48.4,29.93,ESE,123,0.0,5.0,78,0.00,,,0.00,meteohub,2013-10-16 22:25:00,
2013-10-16 18:31:00,54.9,48.6,29.93,ESE,123,0.0,9.0,79,0.00,,,0.00,meteohub,2013-10-16 22:31:00,
2013-10-16 18:36:00,54.9,48.6,29.93,SE,128,2.0,9.0,79,0.00,,,0.00,meteohub,2013-10-16 22:36:00,
2013-10-16 18:41:00,54.7,48.6,29.93,SE,131,2.0,9.0,80,0.00,,,0.00,meteohub,2013-10-16 22:41:00,
2013-10-16 18:46:00,54.7,48.6,29.93,South,184,0.0,7.0,80,0.00,,,0.00,meteohub,2013-10-16 22:46:00,
2013-10-16 18:51:00,54.7,48.6,29.94,SE,130,0.0,7.0,80,0.00,,,0.00,meteohub,2013-10-16 22:51:00,
2013-10-16 18:56:00,54.7,48.6,29.93,SE,146,3.0,7.0,80,0.00,,,0.00,meteohub,2013-10-16 22:56:00,
2013-10-16 19:01:00,54.7,48.9,29.93,SE,143,3.0,6.0,81,0.00,,,0.00,meteohub,2013-10-16 23:01:00,
2013-10-16 19:06:00,54.7,48.9,29.92,SSE,154,7.0,7.0,81,0.00,,,0.00,meteohub,2013-10-16 23:06:00,
2013-10-16 19:12:00,54.7,48.9,29.92,South,176,3.0,7.0,81,0.00,,,0.00,meteohub,2013-10-16 23:12:00,
2013-10-16 19:17:00,54.7,48.9,29.92,SSE,159,2.0,7.0,81,0.00,,,0.00,meteohub,2013-10-16 23:17:00,
2013-10-16 19:22:00,54.7,49.3,29.92,SSE,150,7.0,9.0,82,0.00,,,0.00,meteohub,2013-10-16 23:22:00,
2013-10-16 19:27:00,54.9,49.5,29.92,SE,137,6.0,9.0,82,0.00,,,0.00,meteohub,2013-10-16 23:27:00,
2013-10-16 19:32:00,54.9,49.5,29.92,SW,236,0.0,9.0,82,0.00,,,0.00,meteohub,2013-10-16 23:32:00,
2013-10-16 19:37:00,54.7,49.3,29.92,SE,144,0.0,9.0,82,0.00,,,0.00,meteohub,2013-10-16 23:37:00,
2013-10-16 19:42:00,54.7,49.3,29.92,SE,127,0.0,9.0,82,0.00,,,0.00,meteohub,2013-10-16 23:42:00,
2013-10-16 19:47:00,54.7,49.6,29.91,SE,132,0.0,5.0,83,0.00,,,0.00,meteohub,2013-10-16 23:47:00,
2013-10-16 19:52:00,54.5,49.5,29.91,SE,126,2.0,5.0,83,0.00,,,0.00,meteohub,2013-10-16 23:52:00,
2013-10-16 19:57:00,54.3,49.3,29.91,SE,133,6.0,6.0,83,0.00,,,0.00,meteohub,2013-10-16 23:57:00,
2013-10-16 20:02:00,54.3,49.6,29.91,SE,139,1.0,8.0,84,0.00,,,0.00,meteohub,2013-10-17 00:02:00,
2013-10-16 20:07:00,54.3,49.6,29.91,SE,125,3.0,10.0,84,0.00,,,0.00,meteohub,2013-10-17 00:07:00,
2013-10-16 20:12:00,54.3,49.6,29.91,SSW,197,2.0,10.0,84,0.00,,,0.00,meteohub,2013-10-17 00:12:00,
2013-10-16 20:17:00,54.3,49.6,29.92,SE,139,3.0,10.0,84,0.00,,,0.00,meteohub,2013-10-17 00:17:00,
2013-10-16 20:22:00,54.3,49.8,29.92,South,188,0.0,7.0,85,0.00,,,0.00,meteohub,2013-10-17 00:22:00,
2013-10-16 20:28:00,54.3,49.8,29.92,SE,140,1.0,6.0,85,0.00,,,0.00,meteohub,2013-10-17 00:28:00,
2013-10-16 20:33:00,54.3,49.8,29.91,SE,132,0.0,6.0,85,0.00,,,0.00,meteohub,2013-10-17 00:33:00,
2013-10-16 20:38:00,54.1,50.0,29.91,SE,128,5.0,6.0,86,0.00,,,0.00,meteohub,2013-10-17 00:38:00,
2013-10-16 20:43:00,54.1,50.0,29.91,ESE,122,4.0,8.0,86,0.00,,,0.00,meteohub,2013-10-17 00:43:00,
2013-10-16 20:48:00,54.3,50.2,29.91,East,101,5.0,8.0,86,0.00,,,0.00,meteohub,2013-10-17 00:48:00,
2013-10-16 20:53:00,54.3,50.5,29.90,SE,124,3.0,9.0,87,0.00,,,0.00,meteohub,2013-10-17 00:53:00,
2013-10-16 20:58:00,54.3,50.5,29.91,SSE,150,3.0,9.0,87,0.00,,,0.00,meteohub,2013-10-17 00:58:00,
2013-10-16 21:03:00,54.3,50.5,29.90,South,174,2.0,8.0,87,0.00,,,0.00,meteohub,2013-10-17 01:03:00,
2013-10-16 21:09:00,54.5,51.1,29.90,SE,129,2.0,9.0,88,0.00,,,0.00,meteohub,2013-10-17 01:09:00,
2013-10-16 21:14:00,54.5,51.1,29.90,South,187,2.0,9.0,88,0.00,,,0.00,meteohub,2013-10-17 01:14:00,
2013-10-16 21:19:00,54.7,51.3,29.90,South,170,4.0,7.0,88,0.00,,,0.00,meteohub,2013-10-17 01:19:00,
2013-10-16 21:24:00,54.7,51.3,29.91,SW,216,4.0,7.0,88,0.00,,,0.00,meteohub,2013-10-17 01:24:00,
2013-10-16 21:29:00,54.7,51.4,29.91,WSW,240,3.0,7.0,89,0.00,,,0.00,meteohub,2013-10-17 01:29:00,
2013-10-16 21:34:00,54.7,51.4,29.91,SSW,205,4.0,6.0,89,0.00,,,0.00,meteohub,2013-10-17 01:34:00,
2013-10-16 21:39:00,54.7,51.4,29.91,SSW,205,0.0,7.0,89,0.00,,,0.00,meteohub,2013-10-17 01:39:00,
2013-10-16 21:44:00,54.7,51.4,29.90,SW,232,3.0,8.0,89,0.00,,,0.00,meteohub,2013-10-17 01:44:00,
2013-10-16 21:50:00,54.5,51.3,29.90,ESE,119,3.0,8.0,89,0.00,,,0.00,meteohub,2013-10-17 01:50:00,
2013-10-16 21:55:00,54.5,51.6,29.89,SE,141,3.0,11.0,90,0.00,,,0.00,meteohub,2013-10-17 01:55:00,
2013-10-16 22:00:00,54.3,51.4,29.89,ESE,123,3.0,11.0,90,0.00,,,0.00,meteohub,2013-10-17 02:00:00,
2013-10-16 22:05:00,54.1,51.6,29.88,South,186,1.0,8.0,91,0.00,,,0.00,meteohub,2013-10-17 02:05:00,
2013-10-16 22:10:00,54.1,51.6,29.88,SE,132,3.0,8.0,91,0.00,,,0.00,meteohub,2013-10-17 02:10:00,
2013-10-16 22:15:00,54.1,51.8,29.88,SSW,202,0.0,8.0,92,0.00,,,0.00,meteohub,2013-10-17 02:15:00,
2013-10-16 22:20:00,54.0,51.6,29.88,SSE,150,1.0,8.0,92,0.00,,,0.00,meteohub,2013-10-17 02:20:00,
2013-10-16 22:26:00,54.0,51.6,29.88,SW,219,0.0,9.0,92,0.00,,,0.00,meteohub,2013-10-17 02:26:00,
2013-10-16 22:31:00,54.0,51.6,29.88,SE,140,0.0,9.0,92,0.00,,,0.00,meteohub,2013-10-17 02:31:00,
2013-10-16 22:36:00,54.0,51.6,29.87,SE,128,5.0,9.0,92,0.00,,,0.00,meteohub,2013-10-17 02:36:00,
2013-10-16 22:41:00,54.0,51.6,29.87,South,179,3.0,5.0,92,0.00,,,0.00,meteohub,2013-10-17 02:41:00,
2013-10-16 22:46:00,53.8,51.8,29.87,ESE,118,7.0,9.0,93,0.00,,,0.00,meteohub,2013-10-17 02:46:00,
2013-10-16 22:51:00,53.8,51.8,29.86,ESE,122,3.0,9.0,93,0.00,,,0.00,meteohub,2013-10-17 02:51:00,
2013-10-16 22:56:00,53.8,51.8,29.87,South,169,6.0,9.0,93,0.00,,,0.00,meteohub,2013-10-17 02:56:00,
2013-10-16 23:01:00,53.8,51.8,29.87,SSE,152,0.0,8.0,93,0.00,,,0.00,meteohub,2013-10-17 03:01:00,
2013-10-16 23:07:00,53.8,51.8,29.86,South,187,1.0,7.0,93,0.00,,,0.00,meteohub,2013-10-17 03:07:00,
2013-10-16 23:12:00,53.6,51.6,29.86,South,170,1.0,6.0,93,0.00,,,0.00,meteohub,2013-10-17 03:12:00,
2013-10-16 23:17:00,53.8,51.8,29.85,SSE,157,0.0,6.0,93,0.00,,,0.00,meteohub,2013-10-17 03:17:00,
2013-10-16 23:22:00,53.8,51.8,29.86,SSW,202,1.0,5.0,93,0.00,,,0.00,meteohub,2013-10-17 03:22:00,
2013-10-16 23:27:00,53.8,51.8,29.86,SSW,202,0.0,4.0,93,0.00,,,0.00,meteohub,2013-10-17 03:27:00,
2013-10-16 23:32:00,53.8,51.8,29.86,SSW,202,0.0,3.0,93,0.00,,,0.00,meteohub,2013-10-17 03:32:00,
2013-10-16 23:37:00,53.8,51.8,29.86,SSW,202,0.0,3.0,93,0.00,,,0.00,meteohub,2013-10-17 03:37:00,
2013-10-16 23:42:00,53.8,51.8,29.86,SSW,202,0.0,1.0,93,0.00,,,0.00,meteohub,2013-10-17 03:42:00,
2013-10-16 23:47:00,53.6,51.6,29.86,SSW,201,0.0,1.0,93,0.00,,,0.00,meteohub,2013-10-17 03:47:00,
2013-10-16 23:52:00,53.6,51.6,29.86,SSW,201,0.0,0.0,93,0.00,,,0.00,meteohub,2013-10-17 03:52:00,
2013-10-16 23:57:00,53.8,51.8,29.85,South,191,1.0,0.0,93,0.00,,,0.00,meteohub,2013-10-17 03:57:00,